• In Hungary
  • List of Countries
  • For 7 days
  • Water Temperature
  • Satellite Maps
  • Weather Map
  • News
  • Weather Widgets
  • user-avatar
    Login

    Hourly Weather SanFrancisco

    Today, 18 October, Wednesday

    Time Temperature Precipitation Wind Pressure Humidity
    00:00 +26°C° 0 mm 1 mps 735 mmHg 78%
    01:00 +26°C° 0 mm 1 mps 735 mmHg 81%
    02:00 +25°C° 0 mm 1 mps 735 mmHg 84%
    03:00 +25°C° 0.1 mm 1 mps 735 mmHg 87%
    04:00 +24°C° 0.1 mm 1 mps 735 mmHg 89%
    05:00 +24°C° 0.1 mm 1 mps 735 mmHg 92%
    06:00 +25°C° 0 mm 1 mps 735 mmHg 89%
    07:00 +26°C° 0 mm 1 mps 736 mmHg 85%
    08:00 +27°C° 0 mm 1 mps 736 mmHg 81%
    09:00 +29°C° 0.1 mm 1 mps 736 mmHg 73%
    10:00 +31°C° 0.1 mm 1 mps 736 mmHg 65%
    11:00 +34°C° 0.1 mm 2 mps 736 mmHg 56%
    12:00 +34°C° 0.1 mm 1 mps 735 mmHg 54%
    13:00 +34°C° 0.1 mm 1 mps 734 mmHg 53%
    14:00 +35°C° 0.1 mm 1 mps 733 mmHg 51%
    15:00 +34°C° 0.1 mm 1 mps 733 mmHg 55%
    16:00 +33°C° 0.1 mm 1 mps 733 mmHg 60%
    17:00 +32°C° 0.1 mm 1 mps 733 mmHg 64%
    18:00 +31°C° 0.1 mm 1 mps 733 mmHg 68%
    19:00 +29°C° 0.1 mm 1 mps 734 mmHg 71%
    20:00 +28°C° 0.1 mm 1 mps 734 mmHg 75%
    21:00 +27°C° 0.1 mm 2 mps 735 mmHg 79%
    22:00 +27°C° 0.1 mm 2 mps 735 mmHg 84%
    23:00 +26°C° 0.1 mm 2 mps 736 mmHg 88%

    Tomorrow, 19 October, Thursday

    Time Temperature Precipitation Wind Pressure Humidity
    00:00 +26°C° 0.1 mm 2 mps 735 mmHg 89%
    01:00 +25°C° 0.1 mm 2 mps 735 mmHg 90%
    02:00 +25°C° 0.1 mm 2 mps 735 mmHg 91%
    03:00 +25°C° 0.1 mm 2 mps 734 mmHg 92%
    04:00 +25°C° 0.1 mm 1 mps 734 mmHg 93%
    05:00 +24°C° 0.1 mm 1 mps 734 mmHg 94%
    06:00 +25°C° 0.2 mm 2 mps 735 mmHg 91%
    07:00 +26°C° 0.2 mm 2 mps 735 mmHg 89%
    08:00 +26°C° 0.2 mm 2 mps 736 mmHg 86%
    09:00 +28°C° 0.1 mm 2 mps 736 mmHg 78%
    10:00 +30°C° 0.1 mm 2 mps 736 mmHg 70%
    11:00 +32°C° 0.1 mm 2 mps 736 mmHg 62%
    12:00 +32°C° 0.4 mm 2 mps 735 mmHg 62%
    13:00 +34°C° 0.4 mm 2 mps 733 mmHg 62%
    14:00 +33°C° 0.4 mm 1 mps 732 mmHg 62%
    15:00 +32°C° 0.7 mm 1 mps 732 mmHg 66%
    16:00 +31°C° 0.7 mm 1 mps 732 mmHg 71%
    17:00 +31°C° 0.7 mm 1 mps 732 mmHg 76%
    18:00 +29°C° 0.9 mm 1 mps 732 mmHg 81%
    19:00 +28°C° 0.9 mm 2 mps 733 mmHg 85%
    20:00 +26°C° 0.9 mm 2 mps 734 mmHg 90%
    21:00 +26°C° 0.4 mm 2 mps 734 mmHg 92%
    22:00 +26°C° 0.4 mm 2 mps 735 mmHg 93%
    23:00 +25°C° 0.4 mm 2 mps 735 mmHg 95%

    Day after tomorrow, 20 October, Friday

    Time Temperature Precipitation Wind Pressure Humidity
    00:00 +25°C° 0.5 mm 2 mps 735 mmHg 95%
    01:00 +25°C° 0.5 mm 2 mps 734 mmHg 96%
    02:00 +25°C° 0.5 mm 2 mps 734 mmHg 96%
    03:00 +25°C° 0.2 mm 2 mps 734 mmHg 96%
    04:00 +25°C° 0.2 mm 2 mps 734 mmHg 95%
    05:00 +25°C° 0.2 mm 2 mps 734 mmHg 95%
    06:00 +25°C° 0 mm 2 mps 734 mmHg 93%
    07:00 +26°C° 0 mm 2 mps 735 mmHg 90%
    08:00 +26°C° 0 mm 3 mps 736 mmHg 88%
    09:00 +28°C° 0 mm 3 mps 736 mmHg 80%
    10:00 +30°C° 0 mm 3 mps 736 mmHg 72%
    11:00 +31°C° 0 mm 2 mps 735 mmHg 64%
    12:00 +32°C° 1.1 mm 2 mps 734 mmHg 67%
    13:00 +32°C° 1.1 mm 2 mps 733 mmHg 70%
    14:00 +32°C° 1.1 mm 1 mps 732 mmHg 72%
    15:00 +31°C° 1.1 mm 1 mps 732 mmHg 75%
    16:00 +30°C° 1.1 mm 1 mps 732 mmHg 78%
    17:00 +30°C° 1.1 mm 1 mps 732 mmHg 81%
    18:00 +28°C° 1.1 mm 1 mps 732 mmHg 83%
    19:00 +27°C° 1.1 mm 1 mps 733 mmHg 86%
    20:00 +26°C° 1.1 mm 2 mps 734 mmHg 88%
    21:00 +26°C° 0.3 mm 2 mps 734 mmHg 89%
    22:00 +26°C° 0.3 mm 2 mps 735 mmHg 90%
    23:00 +25°C° 0.3 mm 2 mps 735 mmHg 91%

    21 October, Saturday

    Time Temperature Precipitation Wind Pressure Humidity
    00:00 +25°C° 0 mm 2 mps 734 mmHg 92%
    01:00 +25°C° 0 mm 2 mps 734 mmHg 93%
    02:00 +24°C° 0 mm 1 mps 733 mmHg 94%
    03:00 +24°C° 0 mm 1 mps 734 mmHg 94%
    04:00 +24°C° 0 mm 1 mps 734 mmHg 94%
    05:00 +24°C° 0 mm 1 mps 734 mmHg 95%
    06:00 +25°C° 0 mm 1 mps 735 mmHg 92%
    07:00 +26°C° 0 mm 2 mps 735 mmHg 90%
    08:00 +26°C° 0 mm 2 mps 736 mmHg 87%
    09:00 +28°C° 0 mm 2 mps 736 mmHg 79%
    10:00 +30°C° 0 mm 2 mps 736 mmHg 71%
    11:00 +32°C° 0 mm 2 mps 736 mmHg 63%
    12:00 +32°C° 0 mm 2 mps 735 mmHg 59%
    13:00 +34°C° 0 mm 2 mps 734 mmHg 56%
    14:00 +35°C° 0 mm 2 mps 733 mmHg 53%
    15:00 +33°C° 0.2 mm 1 mps 733 mmHg 59%
    16:00 +32°C° 0.2 mm 1 mps 733 mmHg 64%
    17:00 +32°C° 0.2 mm 1 mps 732 mmHg 70%
    18:00 +30°C° 1 mm 1 mps 733 mmHg 75%
    19:00 +28°C° 1 mm 2 mps 734 mmHg 81%
    20:00 +27°C° 1 mm 2 mps 734 mmHg 86%
    21:00 +26°C° 1.8 mm 2 mps 734 mmHg 88%
    22:00 +26°C° 1.8 mm 2 mps 735 mmHg 90%
    23:00 +26°C° 1.8 mm 2 mps 735 mmHg 92%

    22 October, Sunday

    Time Temperature Precipitation Wind Pressure Humidity
    00:00 +25°C° 0.7 mm 2 mps 735 mmHg 93%
    01:00 +25°C° 0.7 mm 2 mps 734 mmHg 93%
    02:00 +25°C° 0.7 mm 2 mps 734 mmHg 94%
    03:00 +25°C° 0.5 mm 2 mps 734 mmHg 94%
    04:00 +25°C° 0.5 mm 2 mps 735 mmHg 95%
    05:00 +25°C° 0.5 mm 2 mps 735 mmHg 95%
    06:00 +25°C° 0 mm 2 mps 735 mmHg 93%
    07:00 +26°C° 0 mm 2 mps 736 mmHg 91%
    08:00 +26°C° 0 mm 2 mps 736 mmHg 89%
    09:00 +28°C° 0 mm 2 mps 736 mmHg 80%
    10:00 +29°C° 0 mm 2 mps 736 mmHg 72%
    11:00 +31°C° 0 mm 2 mps 736 mmHg 64%
    12:00 +32°C° 0 mm 2 mps 735 mmHg 61%
    13:00 +32°C° 0 mm 2 mps 734 mmHg 59%
    14:00 +34°C° 0 mm 2 mps 733 mmHg 56%
    15:00 +32°C° 0 mm 1 mps 733 mmHg 61%
    16:00 +31°C° 0 mm 1 mps 733 mmHg 67%
    17:00 +30°C° 0 mm 1 mps 733 mmHg 72%
    18:00 +29°C° 0.1 mm 1 mps 734 mmHg 74%
    19:00 +28°C° 0.1 mm 1 mps 734 mmHg 76%
    20:00 +27°C° 0.1 mm 1 mps 735 mmHg 78%
    21:00 +27°C° 0.8 mm 1 mps 735 mmHg 82%
    22:00 +26°C° 0.8 mm 1 mps 735 mmHg 87%
    23:00 +25°C° 0.8 mm 1 mps 735 mmHg 92%

    23 October, Monday

    Time Temperature Precipitation Wind Pressure Humidity
    00:00 +25°C° 0.9 mm 1 mps 735 mmHg 93%
    01:00 +25°C° 0.9 mm 1 mps 735 mmHg 95%
    02:00 +24°C° 0.9 mm 1 mps 734 mmHg 96%
    03:00 +24°C° 0.7 mm 1 mps 734 mmHg 96%
    04:00 +24°C° 0.7 mm 1 mps 734 mmHg 97%
    05:00 +24°C° 0.7 mm 1 mps 734 mmHg 97%
    06:00 +25°C° 0.1 mm 1 mps 735 mmHg 94%
    07:00 +26°C° 0.1 mm 2 mps 736 mmHg 91%
    08:00 +27°C° 0.1 mm 2 mps 736 mmHg 89%
    09:00 +28°C° 0 mm 2 mps 736 mmHg 81%
    10:00 +30°C° 0 mm 2 mps 736 mmHg 73%
    11:00 +31°C° 0 mm 2 mps 736 mmHg 64%
    12:00 +32°C° 0.5 mm 2 mps 735 mmHg 62%
    13:00 +33°C° 0.5 mm 1 mps 734 mmHg 60%
    14:00 +34°C° 0.5 mm 1 mps 733 mmHg 58%
    15:00 +33°C° 0.5 mm 1 mps 732 mmHg 63%
    16:00 +32°C° 0.5 mm 1 mps 732 mmHg 67%
    17:00 +31°C° 0.5 mm 1 mps 732 mmHg 72%
    18:00 +30°C° 0.5 mm 1 mps 732 mmHg 77%
    19:00 +28°C° 0.5 mm 1 mps 733 mmHg 82%
    20:00 +27°C° 0.5 mm 2 mps 733 mmHg 87%
    21:00 +26°C° 0.5 mm 2 mps 734 mmHg 89%
    22:00 +26°C° 0.5 mm 2 mps 734 mmHg 92%
    23:00 +25°C° 0.5 mm 2 mps 734 mmHg 95%
    Show more